TimeMDT,TemperatureF,Dew PointF,Humidity,Sea Level PressureIn,VisibilityMPH,Wind Direction,Wind SpeedMPH,Gust SpeedMPH,PrecipitationIn,Events,Conditions,WindDirDegrees,DateUTC
12:53 AM,50.0,44.1,80,30.24,10.0,SSE,4.6,-,N/A,,Partly Cloudy,150,2012-10-14 06:53:00
1:53 AM,48.9,44.1,83,30.24,10.0,SE,6.9,-,N/A,,Partly Cloudy,130,2012-10-14 07:53:00
2:53 AM,48.0,43.0,83,30.25,10.0,SE,5.8,-,N/A,,Clear,140,2012-10-14 08:53:00
3:53 AM,46.9,43.0,86,30.26,10.0,ESE,5.8,-,N/A,,Clear,120,2012-10-14 09:53:00
4:53 AM,46.9,42.1,83,30.25,10.0,SSE,6.9,-,N/A,,Clear,150,2012-10-14 10:53:00
5:53 AM,46.9,42.1,83,30.27,10.0,SSE,6.9,-,N/A,,Clear,160,2012-10-14 11:53:00
6:53 AM,46.0,42.1,86,30.29,10.0,SE,9.2,-,N/A,,Clear,140,2012-10-14 12:53:00
7:53 AM,46.0,42.1,86,30.30,10.0,SE,6.9,-,N/A,,Scattered Clouds,130,2012-10-14 13:53:00
8:53 AM,50.0,44.1,80,30.32,10.0,SSE,6.9,-,N/A,,Partly Cloudy,150,2012-10-14 14:53:00
9:53 AM,54.0,43.0,66,30.32,10.0,SE,10.4,-,N/A,,Scattered Clouds,140,2012-10-14 15:53:00
10:53 AM,57.9,43.0,58,30.32,10.0,SSE,5.8,-,N/A,,Scattered Clouds,160,2012-10-14 16:53:00
11:53 AM,62.1,43.0,50,30.29,10.0,SSE,5.8,-,N/A,,Scattered Clouds,150,2012-10-14 17:53:00
12:53 PM,64.0,39.9,41,30.28,10.0,Variable,3.5,-,N/A,,Scattered Clouds,0,2012-10-14 18:53:00
1:53 PM,66.0,39.9,38,30.25,10.0,North,5.8,-,N/A,,Scattered Clouds,350,2012-10-14 19:53:00
2:53 PM,68.0,37.0,32,30.23,10.0,NNW,8.1,-,N/A,,Scattered Clouds,340,2012-10-14 20:53:00
3:53 PM,68.0,37.9,33,30.22,10.0,NNE,5.8,-,N/A,,Scattered Clouds,30,2012-10-14 21:53:00
4:53 PM,66.9,37.9,34,30.20,10.0,NNE,4.6,-,N/A,,Scattered Clouds,20,2012-10-14 22:53:00
5:53 PM,66.0,39.0,37,30.18,10.0,Variable,3.5,-,N/A,,Mostly Cloudy,0,2012-10-14 23:53:00
6:53 PM,60.1,41.0,49,30.18,10.0,North,6.9,-,N/A,,Scattered Clouds,10,2012-10-15 00:53:00
7:53 PM,57.9,41.0,53,30.18,10.0,Calm,Calm,-,N/A,,Partly Cloudy,0,2012-10-15 01:53:00
8:53 PM,55.0,42.1,62,30.18,10.0,SSW,4.6,-,N/A,,Clear,200,2012-10-15 02:53:00
9:53 PM,54.0,42.1,64,30.17,10.0,SSE,5.8,-,N/A,,Clear,150,2012-10-15 03:53:00
10:53 PM,53.1,41.0,64,30.16,10.0,SE,8.1,-,N/A,,Clear,140,2012-10-15 04:53:00
11:53 PM,52.0,41.0,66,30.14,10.0,SE,8.1,-,N/A,,Clear,140,2012-10-15 05:53:00